Location: Lake Almanor
(40.2485°N, 121.1442°W)
Time: 01:19:17
(UTC-08:00)

STARLINK-1096 - Pass Details

Date: 31 January 2020
Orbit: 344 x 355 km, 53.0° (Epoch: 22 February)

Event Time Altitude Azimuth Distance (km) Brightness Sun altitude
Rises 18:07:31 0° 315° (NW) 2,189 7.1 -9.1°
Reaches altitude 10° 18:09:39 10° 325° (NW) 1,341 5.9 -9.5°
Maximum altitude 18:12:25 33° 33° (NNE) 630 3.6 -10.0°
Enters shadow 18:14:23 16° 92° (E) 1,053 4.5 -10.4°
